STARLINK-37463, 68854

Orbit data source: Space-Track

STARLINK-37463, 68854 is a payload satellite owned by SpaceX/Seattle (US) in SSO that was launched on Sun, 26 Apr 2026 UTC via an FALCON 9 launch vehicle from the Air Force Western Test Range (AFWTR). Payload-class satellites include a variety of spacecraft equipped with specific instruments for various scientific and technological missions. These include communications satellites like Starlink; space stations such as the ISS; scientific satellites like the Hubble; Earth observation satellites from companies like Planet Labs, Umbra, and HawkEye 360; GPS; miniature CubeSats for education and research; and military/defense satellites.

Loading next visibility...
Identifier
68854, 2026-094R
Orbit
SSO
Country
Flag of USUS
Related business
Manufacturer
SpaceX/Seattle
Mission
Operational spacecraft
Bus & Motor
STARLINK V2MO, Unknown motor
Mass
575 kg wet, ~530 kg dry
Launch date (UTC)
2026-04-26 (2 months ago)
Launch vehicle
FALCON 9
Launch site
Air Force Western Test Range (AFWTR)
Object type
Payload
Rocket body
Debris
Shape & HBR
Unknown shape, 14.5 m
Radar Cross Section
Large (>1 m²)

Expand to show TLE details & history
Last TLE update: 20 hours ago

TLE from 20 hours ago
0 STARLINK-37463
1 68854U 26094R   26170.99802575  .00020658  00000-0  64018-3 0  9996
2 68854  97.2837 185.4692 0001747  98.2114 261.9327 15.33458018  8486
Epoch: 2026-06-19T23:57Z
TLE epoch observation values (Epoch: 2026-06-19T23:57:09.424Z)
Latitude
-0.00004°
Longitude
-82.03903°
Altitude
468.785 km
Speed
7.632 km/s
True Right ascension
12h 21m 52s
True Declination
0° 00' 00"
Sunlit
Object was in daylight at epoch
Visualization orbit readout
Latitude
Unknown
Longitude
Unknown
Altitude
Unknown
Speed
Unknown
Apparent Right ascension
Unknown
Apparent Declination
Unknown
Sunlit
N/A
Visualization observer readout
Local Sidereal Time
07:16:23
Azimuth
Unknown
Elevation
Unknown
Doppler factor
Unknown
Orbital elements
Apogee altitude
463.642 km
Perigee altitude
461.252 km
Semi-major axis
6,840.584 km
Eccentricity
0.00017
Inclination
97.2837°
RAAN
185.4692°
Arg. of periapsis
98.2114°
True anomaly
261.91288°
Mean anomaly
261.9327°
Eccentric anomaly
261.92279°
Mean motion
3.83622 °/min
Orbital period
93.84 mins
BSTAR
0.00064018
Loading maneuver chart data...
Computing Atmospheric mass density...
Loading historical data...
Loading historical data...
Loading historical data...
Loading historical data...
Loading historical data...
Loading historical data...
Loading historical data...

Documentation

Showing up to 5 results
|